Date,TemperatureHighF,TemperatureAvgF,TemperatureLowF,DewpointHighF,DewpointAvgF,DewpointLowF,HumidityHigh,HumidityAvg,HumidityLow,PressureMaxIn,PressureMinIn,WindSpeedMaxMPH,WindSpeedAvgMPH,GustSpeedMaxMPH,PrecipitationSumIn
2013-8-1,77,68,61,66,62,58,90,82,62,29.92,29.71,14,4,0,0.20
2013-8-2,83,72,63,64,59,53,95,68,38,29.75,29.68,14,5,0,0.00
2013-8-3,81,69,59,61,56,53,90,65,41,29.75,29.67,20,6,0,0.08
2013-8-4,77,68,56,59,54,50,90,62,41,29.85,29.70,12,4,0,0.08
2013-8-5,78,66,53,50,46,40,75,52,30,29.96,29.83,11,5,0,0.00
2013-8-6,81,67,52,56,52,48,88,63,38,30.04,29.93,7,3,0,0.00
2013-8-7,78,70,63,63,59,55,79,69,57,30.05,29.91,14,5,0,0.00
2013-8-8,86,75,70,71,67,62,90,77,61,29.91,29.83,10,5,0,0.23
2013-8-9,82,74,71,72,70,65,93,87,70,29.85,29.64,9,4,0,0.19
2013-8-10,81,72,61,63,52,41,86,54,25,29.94,29.71,17,6,0,0.00
2013-8-11,81,68,53,58,53,48,89,61,37,30.02,29.84,10,4,0,0.00
2013-8-12,83,70,56,60,56,52,90,64,38,29.94,29.78,11,3,0,0.00
2013-8-13,74,66,64,65,62,54,94,86,72,29.78,29.57,10,3,0,1.04
2013-8-14,73,63,54,54,51,49,86,67,46,29.89,29.63,18,6,0,0.00
2013-8-15,76,63,50,55,50,47,93,66,40,30.03,29.88,16,5,0,0.00
2013-8-16,80,66,54,60,53,49,91,66,40,30.10,29.99,8,3,0,0.00
2013-8-17,82,69,55,61,57,52,91,68,46,30.20,30.09,7,2,0,0.00
2013-8-18,77,68,59,63,60,57,91,77,59,30.19,29.99,7,3,0,0.00
2013-8-19,87,72,60,66,62,58,95,73,42,30.01,29.84,11,3,0,0.00
2013-8-20,88,73,59,67,61,56,92,68,39,30.01,29.91,8,3,0,0.00
2013-8-21,88,75,63,68,63,60,90,68,43,30.07,29.90,9,4,0,0.00
2013-8-22,88,75,64,69,64,60,89,72,48,29.92,29.69,14,5,0,0.01
2013-8-23,79,69,60,65,56,50,88,65,42,30.07,29.77,13,5,0,0.00
2013-8-24,82,67,53,55,52,50,90,62,36,30.24,30.07,6,3,0,0.00
2013-8-25,83,68,53,61,56,50,92,66,38,30.31,30.01,14,4,0,0.00
2013-8-26,82,71,65,68,63,59,94,78,62,30.04,29.78,12,6,0,0.22
2013-8-27,84,75,68,69,67,66,95,78,60,29.81,29.74,6,2,0,0.01
2013-8-28,89,76,65,70,67,64,95,75,47,29.82,29.70,6,2,0,0.00
2013-8-29,82,72,66,67,64,63,91,78,57,29.96,29.81,6,2,0,0.03
2013-8-30,87,75,67,70,66,63,88,74,56,29.89,29.67,14,4,0,0.00
2013-8-31,81,73,68,73,69,66,95,88,75,29.70,29.61,9,4,0,0.65